{"data":{"norad_id":50182,"epoch":"2026-05-24T18:10:34.796352Z","epoch_age_seconds":89790,"freshness":"FRESH","line1":"1 50182U 21125AC  26144.75734718  .00000128  00000+0  26121-4 0  9992","line2":"2 50182  53.2168 267.4841 0001382  93.0237 267.0913 15.08838169248127","mean_motion":15.08838169,"eccentricity":0.0001382,"inclination_deg":53.2168,"raan_deg":267.4841,"arg_perigee_deg":93.0237,"mean_anomaly_deg":267.0913,"bstar":2.6121e-5,"rev_number":24812,"period_min":95.437670492812,"perigee_km":538.79293376105,"apogee_km":540.70503744747,"semimajor_km":6917.8859856043,"source":"CELESTRAK","updated_at":"2026-05-25T13:38:16.868159Z"}}